Weather History for Kokomo, IN

Change the Weather History Date:

Sunday, May 20, 2012

  Actual Average (KGUS) Record (KGUS)
Temperature  
Mean Temperature 78 °F -  
Max Temperature 93 °F 69 °F 89 °F (2012)
Min Temperature 64 °F 52 °F 39 °F (2002)
Cooling Degree Days 14    
Growing Degree Days 28 (Base 50)    
Moisture  
Dew Point 54 °F    
Average Humidity 45    
Maximum Humidity 68    
Minimum Humidity 26    
Precipitation  
Precipitation 0.01 in - - ()
Sea Level Pressure  
Sea Level Pressure 30.06 in    
Wind  
Wind Speed 7 mph (South)    
Max Wind Speed 22 mph    
Max Gust Speed 28 mph    
Visibility 10 miles    
Events Thunderstorm    
Averages and records for this station are not official NWS values.
T = Trace of Precipitation, MM = Missing Value Source: NWS Daily Summary

Daily Weather History Graph

Daily Weather History Graph

Search for Another Location

Airport:

Trip Planner

Search our weather history database for the weather conditions in past years. The results will help you decide how hot, cold, wet, or windy it might be!

Date:

Astronomy

May. 20, 2012 Rise Set
Actual Time 5:22 AM CDT 7:59 PM CDT
Civil Twilight 4:51 AM CDT 8:30 PM CDT
Nautical Twilight 4:12 AM CDT 9:10 PM CDT
Astronomical Twilight 3:27 AM CDT 9:54 PM CDT
Moon 5:03 AM CDT 7:57 PM CDT
Length of Visible Light 15h 39m
Length of Day
14h 36m
Waning Crescent, 0% of the Moon is Illuminated
May 20
Waning Crescent
May 20
New
May 28
First Quarter
Jun 4
Full
Jun 11
Last Quarter

Hourly Weather History & Observations

Time (CDT) Temp. Heat Index Dew Point Humidity Pressure Visibility Wind Dir Wind Speed Gust Speed Precip Events Conditions
12:15 AM 71.6 °F - 50.0 °F 46% 30.08 in 10.0 mi South 9.2 mph - N/A   Clear
12:35 AM 71.6 °F - 51.8 °F 50% 30.08 in 10.0 mi SSE 11.5 mph - N/A   Clear
12:55 AM 71.6 °F - 51.8 °F 50% 30.08 in 10.0 mi South 8.1 mph - N/A   Clear
1:15 AM 71.6 °F - 51.8 °F 50% 30.08 in 10.0 mi SSW 5.8 mph - N/A   Clear
1:35 AM 69.8 °F - 51.8 °F 53% 30.09 in 10.0 mi South 6.9 mph - N/A   Clear
1:55 AM 69.8 °F - 51.8 °F 53% 30.09 in 10.0 mi South 5.8 mph - N/A   Clear
2:15 AM 66.2 °F - 51.8 °F 60% 30.09 in 10.0 mi South 5.8 mph - N/A   Clear
2:35 AM 68.0 °F - 51.8 °F 56% 30.09 in 10.0 mi South 4.6 mph - N/A   Clear
2:55 AM 68.0 °F - 51.8 °F 56% 30.09 in 10.0 mi Calm Calm - N/A   Clear
3:15 AM 66.2 °F - 51.8 °F 60% 30.10 in 10.0 mi SSW 3.5 mph - N/A   Clear
3:35 AM 66.2 °F - 51.8 °F 60% 30.10 in 10.0 mi South 3.5 mph - N/A   Clear
3:55 AM 66.2 °F - 51.8 °F 60% 30.10 in 10.0 mi South 5.8 mph - N/A   Clear
4:15 AM 64.4 °F - 51.8 °F 64% 30.11 in 10.0 mi South 5.8 mph - N/A   Clear
4:35 AM 66.2 °F - 51.8 °F 60% 30.11 in 10.0 mi South 5.8 mph - N/A   Partly Cloudy
4:55 AM 66.2 °F - 51.8 °F 60% 30.11 in 10.0 mi SE 5.8 mph - N/A   Partly Cloudy
5:15 AM 64.4 °F - 51.8 °F 64% 30.11 in 10.0 mi SSE 3.5 mph - N/A   Clear
5:35 AM 64.4 °F - 51.8 °F 64% 30.11 in 10.0 mi South 3.5 mph - N/A   Clear
5:55 AM 66.2 °F - 51.8 °F 60% 30.12 in 10.0 mi South 6.9 mph - N/A   Partly Cloudy
6:15 AM 68.0 °F - 53.6 °F 60% 30.11 in 10.0 mi South 6.9 mph - N/A   Clear
6:35 AM 69.8 °F - 53.6 °F 56% 30.12 in 10.0 mi South 6.9 mph - N/A   Clear
6:55 AM 71.6 °F - 53.6 °F 53% 30.12 in 10.0 mi South 6.9 mph - N/A   Clear
7:15 AM 71.6 °F - 53.6 °F 53% 30.13 in 10.0 mi South 5.8 mph - N/A   Clear
7:35 AM 73.4 °F - 55.4 °F 53% 30.13 in 10.0 mi South 8.1 mph - N/A   Clear
7:55 AM 75.2 °F - 57.2 °F 53% 30.13 in 10.0 mi South 9.2 mph - N/A   Clear
8:15 AM 78.8 °F - 57.2 °F 47% 30.13 in 10.0 mi South 8.1 mph - N/A   Scattered Clouds
8:35 AM 80.6 °F 81.1 °F 59.0 °F 48% 30.13 in 10.0 mi SSW 8.1 mph - N/A   Scattered Clouds
9:15 AM 82.4 °F 82.9 °F 60.8 °F 48% 30.12 in 10.0 mi SSW 8.1 mph - N/A   Clear
9:35 AM 82.4 °F 82.9 °F 60.8 °F 48% 30.12 in 10.0 mi SSW 6.9 mph - N/A   Clear
9:55 AM 82.4 °F 82.9 °F 60.8 °F 48% 30.11 in 10.0 mi South 6.9 mph - N/A   Partly Cloudy
10:15 AM 84.2 °F 84.4 °F 60.8 °F 45% 30.11 in 10.0 mi SW 6.9 mph - N/A   Clear
10:35 AM 84.2 °F 83.8 °F 59.0 °F 42% 30.11 in 10.0 mi SSE 6.9 mph - N/A   Clear
10:55 AM 86.0 °F 85.4 °F 59.0 °F 40% 30.10 in 10.0 mi Calm Calm - N/A   Scattered Clouds
11:15 AM 87.8 °F 86.5 °F 57.2 °F 35% 30.09 in 10.0 mi WSW 5.8 mph - N/A   Partly Cloudy
11:35 AM 87.8 °F 86.5 °F 57.2 °F 35% 30.09 in 10.0 mi SSE 4.6 mph - N/A   Partly Cloudy
11:55 AM 87.8 °F 86.5 °F 57.2 °F 35% 30.09 in 10.0 mi SE 8.1 mph - N/A   Clear
12:15 PM 87.8 °F 86.5 °F 57.2 °F 35% 30.08 in 10.0 mi WNW 8.1 mph - N/A   Scattered Clouds
12:35 PM 89.6 °F 87.7 °F 55.4 °F 31% 30.08 in 10.0 mi SSW 6.9 mph - N/A   Partly Cloudy
12:55 PM 87.8 °F 86.5 °F 57.2 °F 35% 30.07 in 10.0 mi Calm Calm - N/A   Partly Cloudy
1:15 PM 89.6 °F 87.7 °F 55.4 °F 31% 30.07 in 10.0 mi South 4.6 mph - N/A   Partly Cloudy
1:35 PM 91.4 °F 89.4 °F 55.4 °F 29% 30.06 in 10.0 mi SW 6.9 mph 16.1 mph N/A   Partly Cloudy
1:55 PM 87.8 °F 85.7 °F 53.6 °F 31% 30.06 in 10.0 mi SW 10.4 mph - N/A   Scattered Clouds
2:15 PM 91.4 °F 89.4 °F 55.4 °F 29% 30.05 in 10.0 mi SW 9.2 mph - N/A   Partly Cloudy
2:35 PM 91.4 °F 89.1 °F 53.6 °F 28% 30.04 in 10.0 mi SSW 10.4 mph - N/A   Clear
2:55 PM 89.6 °F 87.3 °F 53.6 °F 29% 30.04 in 10.0 mi South 8.1 mph - N/A   Clear
3:15 PM 91.4 °F 89.1 °F 53.6 °F 28% 30.03 in 10.0 mi WSW 9.2 mph - N/A   Clear
3:35 PM 93.2 °F 90.8 °F 53.6 °F 26% 30.02 in 10.0 mi SW 10.4 mph 16.1 mph N/A   Clear
3:55 PM 89.6 °F 87.3 °F 53.6 °F 29% 30.01 in 10.0 mi SSW 9.2 mph - N/A   Clear
4:15 PM 89.6 °F 87.3 °F 53.6 °F 29% 30.01 in 10.0 mi South 11.5 mph - N/A   Clear
4:35 PM 89.6 °F 87.7 °F 55.4 °F 31% 30.01 in 10.0 mi SSE 16.1 mph - N/A Thunderstorm Partly Cloudy
4:55 PM 87.8 °F 85.7 °F 53.6 °F 31% 30.01 in 10.0 mi South 3.5 mph - N/A   Clear
5:15 PM 87.8 °F 86.1 °F 55.4 °F 33% 30.00 in 10.0 mi SE 6.9 mph - N/A   Clear
5:35 PM 87.8 °F 86.1 °F 55.4 °F 33% 29.99 in 10.0 mi SSE 10.4 mph - N/A   Clear
5:55 PM 84.2 °F 83.0 °F 55.4 °F 37% 29.99 in 10.0 mi SSE 9.2 mph - N/A   Clear
6:15 PM 87.8 °F 86.1 °F 55.4 °F 33% 29.98 in 10.0 mi SSE 8.1 mph - N/A   Clear
6:35 PM 86.0 °F 84.5 °F 55.4 °F 35% 29.97 in 10.0 mi SSE 6.9 mph - N/A   Clear
6:55 PM 86.0 °F 84.5 °F 55.4 °F 35% 29.98 in 10.0 mi South 8.1 mph - N/A Thunderstorm Clear
7:15 PM 84.2 °F 82.8 °F 53.6 °F 35% 29.98 in 10.0 mi South 8.1 mph - N/A   Clear
7:35 PM 82.4 °F 81.4 °F 53.6 °F 37% 29.98 in 10.0 mi South 8.1 mph - N/A   Clear
7:55 PM 80.6 °F 80.3 °F 53.6 °F 39% 29.97 in 10.0 mi South 6.9 mph - N/A   Clear
8:15 PM 80.6 °F 80.3 °F 53.6 °F 39% 29.98 in 10.0 mi South 8.1 mph - N/A   Clear
8:35 PM 78.8 °F - 53.6 °F 42% 29.98 in 10.0 mi South 8.1 mph - N/A   Clear
8:55 PM 78.8 °F - 53.6 °F 42% 29.98 in 10.0 mi SSE 8.1 mph - N/A   Clear
9:15 PM 75.2 °F - 53.6 °F 47% 29.97 in 10.0 mi SSE 11.5 mph - N/A Thunderstorm Clear
9:35 PM 77.0 °F - 53.6 °F 44% 29.99 in 10.0 mi SSE 11.5 mph - N/A   Clear
9:55 PM 77.0 °F - 53.6 °F 44% 29.99 in 10.0 mi South 10.4 mph - N/A   Clear
10:15 PM 77.0 °F - 53.6 °F 44% 30.00 in 10.0 mi South 9.2 mph - N/A   Clear
10:35 PM 75.2 °F - 53.6 °F 47% 30.00 in 10.0 mi South 9.2 mph - N/A   Clear
10:55 PM 75.2 °F - 53.6 °F 47% 30.00 in 10.0 mi South 10.4 mph - N/A   Clear
11:15 PM 75.2 °F - 53.6 °F 47% 30.02 in 10.0 mi WSW 9.2 mph - N/A   Scattered Clouds
11:35 PM 68.0 °F - 55.4 °F 64% 30.05 in 10.0 mi NW 21.9 mph - N/A Thunderstorm Mostly Cloudy
11:55 PM 66.2 °F - 55.4 °F 68% 30.04 in 10.0 mi NW 21.9 mph 27.6 mph 0.01 in Thunderstorm Thunderstorm